Skip Navigation Links weather.gov 
NOAA logo-Select to go to the NOAA homepage NDBC Title GraphicClick to go to NDBC home page   Select to go to the NWS homepage
Home About Us Contact Us
 
 
    
    Station List

 Data Access
    Mobile Access
    Classic Maps
         Recent
         DART®
    Obs Search
    Ship Obs Report
    BuoyCAMs
    TAO
    DODS
    OceanSITES
    HF Radar
    OSMC
    Dial-A-Buoy
    RSS Feeds Image indicating link to RSS feed access page
    Web Widget
    Email Access
    Web Data Guide
    Maintenance Schedule
    Station Status Report

 Program Info
    Met/Ocean
          Moored Buoy
          C-MAN
    TAO
    DART®
    VOS
    IOOS®

 Publications
    NDBC PEA
    NDBC FONSI
    NDBC DQC Handbook

 FAQ
 Visitor Information
 
USA.gov is the U.S. government's official web portal to all federal, state and local government web resources and services.

Station RPLV2 - 8632837 - Rappahannock Light, VA Image indicating link to RSS feed of recent meteorological observations for station RPLV2

Owned and maintained by NOAA's National Ocean Service
C-MAN Station
37.538 N 76.014 W (37°32'19" N 76°0'51" W)

Site elevation: 0 m above mean sea level
Anemometer height: 16.9 m above site elevation
Barometer elevation: 4.9 m above mean sea level

Latest NWS Marine Forecast

Search And Rescue (SAR) Data

Meteorological Observations from Nearby Stations and Ships Image indicating link to RSS feed of recent meteorological observations near station RPLV2

Large icon indicates selected station.
yellow diamond Stations with recent data
red diamond Stations with no data in last 8 hours
     (24 hours for tsunami stations)


Conditions at RPLV2 as of
(4:18 pm EDT)
2018 GMT on 04/20/2018:
     

Click on the graph icon in the table below to see a time series plot of the last five days of that observation.

5-day plot - Wind Direction Wind Direction (WDIR): N ( 10 deg true )
5-day plot - Wind Speed Wind Speed (WSPD): 8 kts
5-day plot - Wind Gust Wind Gust (GST): 11 kts
5-day plot - Atmospheric Pressure Atmospheric Pressure (PRES): 30.29 in
5-day plot - Wind Speed at 10 Meters Wind Speed at 10 meters (WSPD10M): 8 kts
5-day plot - Wind Speed at 10 Meters Wind Speed at 20 meters (WSPD20M): 10 kts
5-day plot - Wind Speed, Wind Gust and Atmospheric Pressure Combined plot of Wind Speed, Gust, and Air Pressure
NOS Water Level Observation Network Water Level
Previous observations
5-day plot - Wind Direction 5-day plot - Wind Speed 5-day plot - Wind Gust 5-day plot - Wave Height 5-day plot - Dominant Wave Period 5-day plot - Average Period 5-day plot - Mean Wave Direction 5-day plot - Atmospheric Pressure 5-day plot - Pressure Tendency 5-day plot - Air Temperature 5-day plot - Water Temperature 5-day plot - Dew Point 5-day plot - Salinity 5-day plot - Visibility 5-day plot - Tide (above MLLW)
MM DD TIME
(EDT)
WDIR WSPD
kts
GST
kts
WVHT
ft
DPD
sec
APD
sec
MWD PRES
in
PTDY
in
ATMP
°F
WTMP
°F
DEWP
°F
SAL
psu
VIS
nmi
TIDE
ft
0420 4:12 pm N 9 11----30.29-------
0420 4:06 pm N 8 9----30.29-------
0420 4:00 pm N 9 10----30.29-0.02------
0420 3:54 pm N 8 10----30.29-------
0420 3:48 pmNNE 8 12----30.29-------
0420 3:42 pm N 10 12----30.29-------
0420 3:36 pm N 11 12----30.29-------
0420 3:30 pm N 11 12----30.29-------
0420 3:24 pmNNE 11 12----30.29-------
0420 3:18 pmNNE 12 13----30.29-------
0420 3:12 pm N 12 14----30.29-------
0420 3:06 pm N 12 14----30.29-------
0420 3:00 pm N 13 16----30.30-0.02------
0420 2:54 pm N 14 16----30.30-------
0420 2:48 pm N 14 18----30.30-------
0420 2:42 pmNNW 15 16----30.30-------
0420 2:36 pmNNW 14 16----30.30-------
0420 2:30 pm N 12 16----30.30-------
0420 2:24 pm N 14 16----30.31-------
0420 2:18 pmNNW 14 18----30.31-------
0420 2:12 pmNNW 14 17----30.31-------
0420 2:06 pmNNW 15 17----30.31-------
0420 2:00 pm N 15 17----30.31-0.01------
0420 1:54 pm N 13 17----30.31-------
0420 1:48 pmNNW 14 18----30.31-------
0420 1:42 pmNNW 15 19----30.31-------
0420 1:36 pmNNW 17 19----30.31-------
0420 1:30 pmNNW 17 19----30.31-------
0420 1:24 pmNNW 18 21----30.31-------
0420 1:18 pmNNW 19 22----30.31-------
0420 1:12 pmNNW 18 20----30.32-------
0420 1:06 pm NW 17 21----30.31-------
0420 1:00 pmNNW 17 21----30.31+0.00------
042012:54 pmNNW 16 21----30.31-------
042012:48 pmNNW 18 21----30.32-------
042012:42 pmNNW 18 22----30.31-------
042012:36 pmNNW 19 22----30.32-------
042012:30 pmNNW 19 23----30.32-------
042012:24 pmNNW 18 21----30.32-------
042012:18 pmNNW 19 23----30.32-------
042012:12 pmNNW 18 23----30.32-------
042012:06 pmNNW 19 23----30.32-------
042012:00 pm NW 18 22----30.32+0.03------
042011:54 amNNW 19 24----30.32-------
042011:48 amNNW 15 21----30.33-------
042011:42 am NW 19 22----30.33-------
042011:36 am NW 20 24----30.32-------
042011:30 amNNW 18 22----30.33-------
042011:24 amNNW 18 22----30.33-------
042011:18 am NW 18 22----30.33-------
042011:12 amNNW 18 21----30.33-------
042011:06 am NW 19 23----30.32-------
042011:00 amNNW 18 22----30.32+0.04------
042010:54 am NW 19 22----30.32-------
042010:48 amNNW 18 22----30.32-------
042010:42 amNNW 20 24----30.32-------
042010:36 amNNW 19 24----30.32-------
042010:30 amNNW 19 22----30.32-------
042010:24 am NW 19 23----30.32-------
042010:18 am NW 20 23----30.31-------
042010:12 am NW 21 25----30.31-------
042010:06 am NW 21 23----30.31-------
042010:00 am NW 18 24----30.31+0.05------
0420 9:54 am NW 23 25----30.30-------
0420 9:48 am NW 20 26----30.30-------
0420 9:42 am NW 21 27----30.30-------
0420 9:36 am NW 22 26----30.30-------
0420 9:30 am NW 23 26----30.29-------
0420 9:24 am NW 21 28----30.30-------
0420 9:18 am NW 21 25----30.30-------
0420 9:12 amNNW 23 26----30.29-------
0420 9:06 amNNW 21 26----30.29-------
0420 9:00 amNNW 22 27----30.29+0.06------
0420 8:54 am NW 23 27----30.29-------
0420 8:48 am NW 22 25----30.29-------
0420 8:42 am NW 22 25----30.29-------
0420 8:36 amNNW 24 27----30.29-------
0420 8:30 amNNW 23 27----30.29-------
0420 8:24 am NW 23 27----30.29-------
0420 8:18 am NW 25 28----30.28-------
0420 8:12 amNNW 24 29----30.28-------
0420 8:06 am NW 26 30----30.28-------
0420 8:00 amNNW 27 32----30.28+0.06------
0420 7:54 amNNW 28 32----30.28-------
0420 7:48 am NW 29 31----30.28-------
0420 7:42 amNNW 27 31----30.28-------
0420 7:36 am NW 28 31----30.27-------
0420 7:30 amNNW 28 31----30.27-------
0420 7:24 amNNW 28 32----30.26-------
0420 7:18 amNNW 28 32----30.26-------
0420 7:12 am NW 27 33----30.26-------
0420 7:06 am NW 30 35----30.25-------
0420 7:00 amNNW 32 35----30.25+0.06------
0420 6:54 amNNW 31 33----30.25-------
0420 6:48 amNNW 32 34----30.25-------
0420 6:42 am NW 28 33----30.25-------
0420 6:36 am NW 26 33----30.25-------
0420 6:30 am NW 28 33----30.25-------
0420 6:24 am NW 27 32----30.25-------
0420 6:18 amNNW 28 33----30.24-------
0420 6:12 am NW 26 30----30.24-------
0420 6:06 am NW 29 33----30.24-------
0420 6:00 am NW 26 30----30.23+0.04------
0420 5:54 am NW 29 32----30.23-------
0420 5:48 am NW 28 31----30.23-------
0420 5:42 am NW 27 29----30.22-------
0420 5:36 am NW 24 28----30.22-------
0420 5:30 am NW 26 29----30.22-------
0420 5:24 amNNW 28 30----30.22-------
0420 5:18 am NW 22 26----30.22-------
0420 5:12 am NW 20 24----30.22-------
0420 5:06 am NW 23 29----30.22-------
0420 5:00 am NW 20 25----30.22+0.03------
0420 4:54 am NW 19 25----30.21-------
0420 4:48 am NW 21 25----30.21-------
0420 4:42 am NW 21 25----30.21-------
0420 4:36 am NW 19 21----30.21-------
0420 4:30 am NW 20 23----30.20-------
0420 4:24 am NW 20 24----30.20-------
0420 4:18 am NW 20 22----30.20-------
0420 4:12 am NW 21 23----30.20-------
0420 4:06 am NW 19 24----30.20-------
0420 4:00 am NW 19 23----30.20+0.02------
0420 3:54 am NW 19 25----30.19-------
0420 3:48 am NW 20 23----30.19-------
0420 3:42 am NW 19 25----30.19-------
0420 3:36 am NW 21 25----30.19-------
0420 3:30 am NW 20 24----30.19-------
0420 3:24 am NW 21 27----30.19-------
0420 3:18 am NW 22 28----30.19-------
0420 3:12 am NW 22 26----30.19-------
0420 3:06 am NW 21 24----30.19-------
0420 3:00 amWNW 20 25----30.19+0.01------
0420 2:54 am NW 22 25----30.19-------
0420 2:48 am NW 22 26----30.19-------
0420 2:42 am NW 22 26----30.19-------
0420 2:36 am NW 23 27----30.19-------
0420 2:30 am NW 22 26----30.19-------
0420 2:24 am NW 21 25----30.19-------
0420 2:18 am NW 21 25----30.19-------
0420 2:12 am NW 20 25----30.18-------
0420 2:06 am NW 23 27----30.18-------
0420 2:00 am NW 23 27----30.18+0.03------
0420 1:54 am NW 22 29----30.18-------
0420 1:48 am NW 24 26----30.18-------
0420 1:42 am NW 23 26----30.18-------
0420 1:36 am NW 23 28----30.18-------
0420 1:30 am NW 24 29----30.18-------
0420 1:24 am NW 25 29----30.18-------
0420 1:18 am NW 26 30----30.18-------
0420 1:12 am NW 25 31----30.18-------
0420 1:06 am NW 25 29----30.18-------
0420 1:00 am NW 25 31----30.18+0.03------
042012:54 am NW 26 29----30.18-------
042012:48 am NW 25 29----30.18-------
042012:42 am NW 27 31----30.18-------
042012:36 am NW 25 30----30.18-------
042012:30 am NW 23 30----30.18-------
042012:24 am NW 27 32----30.18-------
042012:18 am NW 26 28----30.18-------
042012:12 am NW 24 29----30.18-------
042012:06 am NW 25 30----30.17-------
042012:00 am NW 25 31----30.17+0.08------
041911:54 pm NW 27 35----30.17-------
041911:48 pm NW 25 29----30.17-------
041911:42 pm NW 29 35----30.17-------
041911:36 pm NW 29 35----30.16-------
041911:30 pm NW 32 37----30.16-------
041911:24 pm NW 32 36----30.16-------
041911:18 pm NW 31 36----30.16-------
041911:12 pm NW 31 37----30.16-------
041911:06 pm NW 31 37----30.16-------
041911:00 pm NW 28 34----30.16+0.13------
041910:54 pm NW 32 37----30.15-------
041910:48 pm NW 27 33----30.15-------
041910:42 pmNNW 30 36----30.15-------
041910:36 pm NW 31 37----30.15-------
041910:30 pm NW 30 34----30.15-------
041910:24 pm NW 28 34----30.15-------
041910:18 pm NW 32 36----30.15-------
041910:12 pm NW 31 36----30.15-------
041910:06 pm NW 31 34----30.15-------
041910:00 pm NW 28 34----30.15+0.18------
0419 9:54 pmNNW 29 37----30.15-------
0419 9:48 pm NW 32 36----30.15-------
0419 9:42 pm NW 32 37----30.15-------
0419 9:36 pm NW 32 37----30.14-------
0419 9:30 pm NW 35 42----30.13-------
0419 9:24 pm NW 36 40----30.12-------
0419 9:18 pm NW 33 39----30.11-------
0419 9:12 pm NW 31 38----30.12-------
0419 9:06 pm NW 36 41----30.11-------
0419 9:00 pm NW 33 39----30.09+0.17------
0419 8:54 pm NW 29 38----30.09-------
0419 8:48 pm NW 33 38----30.09-------
0419 8:42 pm NW 33 38----30.08-------
0419 8:36 pm NW 33 37----30.08-------
0419 8:30 pmNNW 33 38----30.06-------
0419 8:24 pm NW 34 38----30.06-------
0419 8:18 pm NW 35 39----30.05-------
0419 8:12 pm NW 32 38----30.04-------
0419 8:06 pmNNW 32 37----30.03-------
0419 8:00 pm NW 33 37----30.03+0.14------
0419 7:54 pm NW 31 37----30.03-------
0419 7:48 pm NW 33 37----30.02-------
0419 7:42 pmNNW 31 34----30.01-------
0419 7:36 pmNNW 29 34----30.00-------
0419 7:30 pmNNW 30 35----30.00-------
0419 7:24 pmNNW 33 37----29.99-------
0419 7:18 pmNNW 27 33----29.99-------
0419 7:12 pmNNW 28 32----29.98-------
0419 7:06 pmNNW 26 32----29.98-------
0419 7:00 pmNNW 29 33----29.98+0.10------
0419 6:54 pmNNW 28 33----29.97-------
0419 6:48 pmNNW 29 34----29.97-------
0419 6:42 pmNNW 33 38----29.96-------
0419 6:36 pmNNW 32 35----29.95-------
0419 6:30 pmNNW 26 31----29.95-------
0419 6:24 pmNNW 29 34----29.95-------
0419 6:18 pmNNW 29 34----29.94-------
0419 6:12 pmNNW 30 33----29.93-------
0419 6:06 pmNNW 28 32----29.93-------
0419 6:00 pmNNW 29 35----29.92+0.05------
0419 5:54 pmNNW 30 35----29.92-------
0419 5:48 pmNNW 28 35----29.91-------
0419 5:42 pmNNW 32 36----29.91-------
0419 5:36 pmNNW 30 34----29.91-------
0419 5:30 pmNNW 29 34----29.91-------
0419 5:24 pmNNW 29 33----29.91-------
0419 5:18 pmNNW 24 28----29.91-------
0419 5:12 pmNNW 22 25----29.90-------
0419 5:06 pmNNW 22 26----29.90-------
0419 5:00 pmNNW 23 27----29.89+0.09------
0419 4:54 pmNNW 23 29----29.89-------
0419 4:48 pmNNW 25 28----29.88-------
0419 4:42 pm N 20 23----29.89-------
0419 4:36 pm N 19 22----29.89-------
0419 4:30 pm N 18 22----29.89-------
0419 4:24 pm N 19 23----29.88-------
0419 4:18 pm N 20 22----29.88-------
0419 4:12 pmNNW 20 23----29.88-------
0419 4:06 pmNNW 21 23----29.88-------
0419 4:00 pm N 21 25----29.88+0.09------
0419 3:54 pmNNW 20 24----29.88-------

Description of Measurements

Links which are specific to this station are listed below:

Real Time Data in tabular form for the last forty-five days.

Historical Data & Climatic Summaries for quality controlled data for the current month, previous months, and previous years.